CW3742 Weather Reports


Display with metric or nautical units.
time (UTC)temp
F
wind
direction
speed
MPH
gust
MPH
rain 1hr
in
rain 24hr
in
rain mn
in
humidity
%
barometer
mb
20260904010018 86 158 3.0 6.0 0.00 0.00 0.00 74 992.4
20260904003016 88 158 4.0 7.0 0.00 0.00 0.00 72 992.3
20260904000016 89 158 4.0 9.0 0.00 0.00 0.00 70 992.3
20260903233016 91 158 5.0 9.0 0.00 0.00 0.00 68 992.4
20260903230017 93 158 4.0 8.0 0.00 0.00 0.00 65 992.7
20260903223016 94 158 5.0 10.0 0.00 0.00 0.00 62 992.8
20260903220036 95 180 5.0 11.0 0.00 0.00 0.00 61 993.1
20260903213016 95 225 6.0 9.0 0.00 0.00 0.00 59 993.4
20260903210016 96 203 5.0 9.0 0.00 0.00 0.00 57 993.4
20260903203016 96 225 3.0 9.0 0.00 0.00 0.00 58 993.6
20260903200016 95 203 3.0 7.0 0.00 0.00 0.00 59 993.7
20260903193017 94 158 5.0 11.0 0.00 0.00 0.00 60 994.0
20260903190016 94 203 5.0 10.0 0.00 0.00 0.00 59 994.0
20260903183016 94 225 4.0 9.0 0.00 0.00 0.00 61 994.2
20260903180016 92 225 3.0 9.0 0.00 0.00 0.00 62 994.4
20260903173016 92 225 3.0 8.0 0.00 0.00 0.00 64 994.5
20260903170018 90 225 5.0 11.0 0.00 0.00 0.00 64 994.8
20260903163016 89 225 4.0 10.0 0.00 0.00 0.00 67 995.0
20260903160016 87 225 6.0 12.0 0.00 0.00 0.00 68 995.1
20260903153016 86 225 7.0 13.0 0.00 0.00 0.00 70 995.0
20260903150016 85 225 8.0 14.0 0.00 0.00 0.00 71 994.9
20260903143016 84 225 7.0 12.0 0.00 0.00 0.00 71 994.6
20260903140016 83 225 7.0 14.0 0.00 0.00 0.00 72 994.6
20260903133017 82 203 7.0 12.0 0.00 0.00 0.00 75 994.6
20260903130056 79 203 5.0 10.0 0.00 0.00 0.00 80 994.6
20260903123016 78 180 4.0 7.0 0.00 0.00 0.00 81 994.6
20260903120016 76 158 5.0 8.0 0.00 0.00 0.00 84 994.2
20260903113016 76 158 5.0 7.0 0.00 0.00 0.00 85 994.0
20260903110036 76 158 5.0 8.0 0.00 0.00 0.00 85 993.9
20260903103016 76 158 5.0 9.0 0.00 0.00 0.00 84 993.8
20260903100018 77 158 5.0 7.0 0.00 0.00 0.00 84 993.8
20260903093038 77 180 4.0 7.0 0.00 0.00 0.00 82 993.7
20260903090016 78 180 4.0 7.0 0.00 0.00 0.00 82 993.9
20260903083018 78 180 4.0 7.0 0.00 0.00 0.00 82 993.8
20260903080016 79 180 4.0 7.0 0.00 0.00 0.00 81 993.7
20260903073016 79 180 4.0 7.0 0.00 0.00 0.00 81 993.8
20260903070017 79 180 3.0 7.0 0.00 0.00 0.00 81 994.0
20260903063016 79 180 3.0 6.0 0.00 0.00 0.00 81 994.1
20260903060017 80 180 3.0 6.0 0.00 0.00 0.00 81 994.1
20260903053016 80 180 4.0 6.0 0.00 0.00 0.00 81 994.2
20260903050016 81 180 3.0 7.0 0.00 0.00 0.00 81 994.1
20260903043036 81 180 3.0 6.0 0.00 0.00 0.00 81 994.0
20260903040036 82 180 3.0 7.0 0.00 0.00 0.00 80 994.0
20260903033017 82 180 4.0 7.0 0.00 0.00 0.00 79 994.1
20260903030036 83 180 4.0 8.0 0.00 0.00 0.00 78 994.0
20260903023016 84 180 3.0 6.0 0.00 0.00 0.00 76 993.9
20260903020017 85 158 4.0 8.0 0.00 0.00 0.00 76 993.6
20260903013016 85 158 4.0 7.0 0.00 0.00 0.00 75 993.3